Wind_Speed
25 25 26 25 25 24 24 24 23 22 21 21 22 22 21 24 25 7 9 5 3 11 10 7 8 10 10 13 11 15 8 1 3 19 6 11 13 7 9 11 6 4 7 25 30
27 27 28 27 25 26 24 25 24 22 21 20 20 19 19 23 21 18 3 4 6 13 9 8 6 5 11 9 5 12 7 8 5 7 10 7 10 10 11 10 8 10 22 32 32
28 29 29 29 27 27 26 25 23 22 21 20 19 18 16 19 14 2 6 8 10 11 7 10 10 8 15 6 5 6 6 4 7 12 6 13 9 7 12 11 12 17 23 26 26
29 29 30 29 29 29 27 24 23 22 21 20 17 17 16 9 6 7 9 9 12 11 7 9 10 12 14 6 2 12 6 8 13 7 6 7 11 7 7 14 12 17 22 22 23
30 31 31 31 31 31 27 26 24 22 21 19 15 11 8 10 17 13 10 8 12 9 12 10 10 11 12 7 4 6 7 10 11 3 14 6 7 8 11 7 13 16 22 23 21
30 31 32 32 32 32 27 28 25 23 19 15 13 7 7 15 2 10 12 11 13 13 15 10 12 12 11 10 2 1 6 8 6 9 6 5 9 10 10 9 15 16 21 22 22
30 31 32 33 33 32 28 26 26 22 15 13 9 7 13 18 6 9 13 16 15 15 14 14 11 14 16 13 3 5 10 8 9 9 11 8 9 8 11 12 15 16 19 20 20
30 32 33 34 35 31 27 25 23 14 12 10 6 9 10 9 22 21 13 16 16 16 15 17 17 17 15 15 7 14 16 15 12 12 8 9 9 14 13 15 15 15 18 19 17
30 32 33 34 36 28 28 21 17 9 8 3 5 10 16 6 15 22 22 25 23 22 18 15 13 16 18 15 15 14 15 22 20 11 11 7 15 15 13 14 17 16 18 19 16
31 32 33 33 34 27 28 21 14 10 5 9 12 7 15 12 10 12 18 23 17 16 16 16 12 15 17 15 15 17 13 15 5 13 6 9 8 16 15 15 16 18 18 20 20
30 32 34 32 30 22 28 16 4 8 10 13 13 15 5 3 13 13 17 13 18 17 20 20 17 20 23 23 22 12 18 15 11 11 4 10 6 19 18 16 18 18 20 19 18
30 31 32 31 20 17 17 8 7 6 12 16 20 21 24 11 10 17 16 14 19 22 23 21 23 24 23 24 24 26 26 8 6 7 5 14 12 14 21 20 21 20 21 23 22
29 31 32 30 12 10 7 10 8 9 8 15 19 21 21 22 20 19 20 20 18 24 27 27 27 24 24 24 23 19 16 11 12 4 11 14 14 15 22 20 19 21 22 22 23
29 31 30 31 8 14 1 11 10 6 6 16 10 10 17 19 21 27 20 21 23 23 26 27 27 26 26 27 24 22 17 14 10 9 12 5 13 16 18 20 21 20 22 23 24
29 30 28 13 14 9 12 13 11 7 6 7 12 5 5 19 8 26 34 21 24 23 19 25 28 27 25 27 25 21 20 16 13 14 16 19 8 7 19 19 21 21 22 22 23
28 28 24 7 10 8 14 12 8 7 12 7 3 7 14 16 20 17 26 24 20 23 23 23 23 29 31 25 27 22 20 11 12 14 14 18 13 13 19 19 21 22 22 22 23
29 26 15 10 9 14 13 9 7 11 5 11 5 4 7 9 18 22 17 26 23 20 22 22 28 25 26 28 25 26 21 11 13 13 14 10 15 4 24 7 18 23 24 23 22
29 18 10 10 10 12 11 9 12 12 21 5 3 8 14 9 11 16 24 21 29 28 18 21 20 30 21 24 25 23 25 13 19 16 14 14 9 7 33 7 13 19 23 23 23
27 15 8 5 7 8 8 11 16 8 7 9 11 15 16 14 7 14 23 23 25 30 26 23 26 29 26 25 25 27 25 23 24 9 10 3 19 14 10 13 5 13 24 25 23
19 17 9 3 6 9 9 15 15 5 7 11 12 12 15 19 13 14 15 18 26 28 30 26 19 26 28 24 27 30 21 22 18 18 3 11 15 12 16 10 10 10 23 24 23
13 5 8 4 7 7 10 14 8 3 7 11 16 16 10 17 5 17 13 11 11 13 24 28 23 21 23 26 26 22 24 21 22 19 7 12 20 17 13 9 2 12 20 23 23
10 5 6 6 9 9 10 8 5 11 9 13 12 12 11 13 11 17 22 10 10 11 13 21 24 18 29 24 29 28 28 26 17 23 15 7 12 20 13 9 6 14 19 21 21
5 6 3 7 8 9 8 5 7 13 10 12 14 15 15 12 8 17 11 8 7 11 8 9 22 17 23 26 27 28 30 28 23 21 21 7 12 20 11 6 12 17 18 19 20
5 3 4 6 4 10 10 7 8 9 11 12 11 13 12 15 12 12 10 2 7 11 14 9 17 23 20 22 23 29 28 28 28 19 20 17 3 12 10 10 16 18 19 20 20
4 2 4 4 2 5 7 11 10 8 11 10 10 14 16 16 19 19 19 17 11 5 12 10 17 23 28 25 24 27 30 28 30 25 25 20 24 31 14 12 15 18 18 20 19
4 4 3 9 8 8 9 12 11 5 10 10 13 2 11 16 17 12 10 2 12 5 10 9 15 21 25 26 23 25 30 31 28 29 27 23 22 23 10 13 14 17 19 20 20
3 7 6 3 9 8 4 4 3 7 8 10 8 11 7 16 16 16 12 15 15 12 11 11 13 18 22 24 26 22 28 31 28 28 27 26 17 25 27 14 16 13 18 19 20
Wind_Direction
14 12 9 6 3 360 356 353 349 343 337 331 332 330 329 326 320 297 263 90 195 172 165 184 214 240 243 257 243 265 302 339 1 91 263 122 113 71 121 126 146 103 178 146 159
13 11 8 5 1 357 352 348 345 339 333 328 327 327 324 324 312 269 194 234 192 176 184 203 223 226 249 235 233 255 298 44 3 81 102 121 110 122 144 126 135 119 108 142 159
10 8 6 3 358 354 349 343 340 334 328 323 321 320 321 319 274 117 125 169 172 178 233 248 295 266 263 244 187 244 23 38 87 45 110 117 115 148 133 173 150 135 144 150 148
7 5 3 359 355 351 346 341 336 330 325 320 318 317 320 309 278 108 129 139 160 191 262 247 252 249 270 279 115 270 84 69 75 104 107 143 109 146 111 71 138 140 154 157 157
4 1 359 356 351 348 344 339 335 328 322 317 313 310 319 241 251 154 158 150 173 215 247 264 276 277 315 309 218 221 86 102 106 89 74 146 124 96 99 119 130 146 159 164 169
2 358 356 353 348 345 341 337 331 326 320 312 307 282 249 255 285 164 184 182 212 220 253 257 306 323 285 294 141 291 153 109 152 117 154 129 121 184 135 158 139 163 169 173 171
359 356 354 351 346 342 339 335 328 323 320 311 282 226 259 241 216 212 211 220 229 241 261 279 306 296 314 293 248 124 179 183 174 156 157 241 159 121 143 156 149 171 174 180 169
358 355 353 350 345 340 336 334 325 320 330 322 217 216 257 240 241 233 226 231 234 241 256 278 281 279 278 285 253 252 226 199 157 163 132 213 237 127 145 153 161 176 176 178 173
356 354 352 349 345 341 334 332 320 304 313 333 209 228 258 177 223 234 231 234 237 239 244 258 266 254 257 240 236 210 237 116 254 170 127 241 202 131 155 163 163 178 184 176 192
354 352 350 349 346 347 337 328 288 279 260 250 261 256 239 228 246 222 222 229 233 241 221 226 241 246 232 236 223 248 214 226 190 165 189 209 159 147 167 170 176 179 196 187 183
352 351 347 346 346 355 345 325 258 202 239 276 313 234 124 346 271 236 226 211 221 230 226 214 229 231 231 234 256 14 279 286 179 151 200 242 258 158 171 185 180 187 189 197 199
353 350 345 343 343 1 2 35 37 332 298 279 265 256 262 280 285 227 200 209 204 218 218 225 222 231 238 240 249 161 254 272 276 133 225 266 221 183 171 194 185 188 191 196 196
350 349 344 340 326 334 17 25 337 320 261 282 238 237 238 226 242 256 204 215 214 220 220 224 226 223 234 235 244 241 250 233 235 157 230 255 262 244 168 189 200 187 186 197 200
347 346 342 338 300 337 329 344 332 322 274 258 206 234 227 223 234 235 221 224 230 229 227 230 229 223 223 235 233 241 222 264 286 266 268 184 266 237 174 189 197 192 189 191 198
343 342 336 334 311 327 334 321 319 262 280 49 137 66 217 206 250 203 220 218 233 221 235 228 227 227 218 228 228 238 245 223 236 256 255 209 238 250 169 188 195 199 193 194 193
337 336 333 342 270 325 320 309 271 232 235 193 166 207 205 214 241 269 194 219 228 243 226 246 224 224 226 220 228 229 241 230 240 247 252 248 256 242 183 184 195 192 194 194 189
333 330 317 293 316 321 315 267 233 240 177 235 199 193 273 246 212 225 203 205 217 216 232 223 238 216 228 230 222 227 225 220 228 231 245 272 211 202 341 148 178 183 191 189 188
330 321 289 266 291 309 290 242 243 258 237 66 285 297 261 258 251 216 231 218 211 226 219 219 217 225 206 229 220 220 226 220 218 231 232 170 238 243 197 141 152 175 181 184 189
331 310 258 213 296 285 263 233 235 272 3 353 304 273 263 246 231 229 221 233 214 217 226 212 230 206 219 217 226 216 225 228 248 273 267 64 264 211 167 199 175 187 169 181 186
316 294 251 294 279 261 255 258 279 350 324 298 279 290 280 249 195 240 242 221 239 213 231 241 228 225 202 216 219 235 204 224 240 245 231 289 295 208 190 205 176 213 169 175 180
292 277 108 302 263 241 241 248 242 44 284 271 263 269 283 291 312 268 247 237 230 277 230 238 247 217 201 204 210 216 224 217 235 238 190 225 243 175 167 185 76 187 166 170 178
282 273 107 294 258 233 252 310 41 282 240 258 268 280 284 294 294 270 254 42 357 308 277 243 237 239 217 201 220 215 217 226 224 236 251 270 289 227 146 141 167 175 158 168 179
276 289 133 251 265 251 202 232 250 274 256 256 245 247 250 265 278 255 291 55 325 308 11 287 234 225 238 199 206 224 219 222 226 235 236 171 245 260 131 131 158 152 160 167 177
280 281 183 211 288 302 313 276 263 191 271 285 285 280 256 244 251 278 254 308 283 303 339 293 261 237 216 213 203 206 227 214 230 218 231 209 115 290 140 133 152 151 161 169 180
263 305 12 274 64 321 311 289 282 259 203 260 235 247 246 242 245 252 258 269 275 110 293 241 251 240 241 231 206 203 215 218 222 229 227 243 146 252 123 120 151 151 162 170 180
298 304 261 265 249 259 230 246 259 261 291 269 252 248 297 253 257 269 302 187 275 64 322 288 258 249 240 245 246 216 203 222 218 225 236 216 248 201 96 116 156 156 170 175 184
282 276 269 261 256 231 293 266 313 310 269 265 325 305 262 290 315 313 320 307 296 297 294 287 257 240 237 232 241 237 210 208 222 220 225 231 216 262 154 161 151 175 176 185 186
Height
816 813 809 806 803 799 796 792 789 785 781 777 774 770 767 764 759 756 747 751 750 751 752 752 751 748 746 739 730 721 743 749 741 765 761 734 746 746 748 761 761 761 768 779 799
817 813 809 806 802 799 795 792 788 785 782 778 775 772 768 764 758 748 748 749 750 751 752 748 742 742 739 730 726 728 734 735 721 724 736 735 739 753 756 765 770 768 772 786 796
817 813 809 805 802 798 794 790 787 784 781 777 775 772 770 765 755 740 746 748 749 751 749 747 742 738 737 722 721 718 735 720 720 721 723 736 745 743 754 765 765 774 778 785 795
817 813 809 804 800 796 792 789 785 781 778 775 773 770 767 765 767 746 749 749 750 752 750 745 740 739 730 730 718 732 722 719 724 725 731 738 738 746 749 751 757 768 778 786 796
817 813 808 803 798 794 790 786 783 779 775 772 771 770 768 759 746 745 749 750 752 753 748 738 737 731 736 724 722 722 725 721 724 729 732 735 743 748 754 756 760 771 780 786 793
818 813 807 802 796 792 787 783 779 776 773 770 769 768 768 763 743 745 748 750 749 749 742 738 734 730 733 725 733 718 719 724 725 733 736 739 748 746 758 755 763 774 778 782 787
818 813 807 801 795 789 784 780 776 773 770 768 767 767 761 747 743 744 746 746 745 743 740 736 735 735 725 727 713 713 732 728 727 730 734 730 753 749 755 755 766 773 775 778 783
819 813 807 801 794 787 781 777 772 770 768 765 764 767 752 739 740 743 743 742 742 742 742 740 739 734 734 718 724 728 723 740 729 727 724 733 787 753 755 762 773 774 773 778 784
819 813 806 800 793 786 779 773 769 767 766 765 764 761 745 735 738 737 738 738 738 738 740 740 737 735 730 738 741 727 741 759 793 724 724 734 761 750 754 763 773 779 772 776 783
818 812 806 800 793 785 777 770 767 765 764 765 761 759 737 731 726 729 730 732 732 730 734 739 739 742 736 736 760 741 728 746 734 727 726 731 736 746 753 761 770 774 772 772 777
818 811 806 799 793 786 776 766 761 758 754 747 737 737 726 729 733 729 727 730 728 731 743 733 748 749 734 724 713 745 738 723 712 706 726 726 727 735 746 753 765 768 773 772 773
818 812 806 799 793 788 782 776 786 787 769 747 738 736 732 732 736 723 722 729 729 738 729 737 743 724 717 715 717 767 734 729 711 706 722 722 722 713 730 741 743 758 763 767 770
818 812 806 799 793 789 787 789 787 785 771 736 723 725 725 728 729 721 717 717 720 730 724 732 721 714 719 721 725 722 725 722 729 720 715 723 729 719 712 726 729 737 749 757 760
818 812 806 798 797 790 785 790 787 785 766 729 721 717 718 717 722 714 707 715 718 721 717 715 706 710 719 722 715 729 707 710 718 726 743 717 748 719 708 724 727 729 735 744 750
818 813 807 805 802 790 794 790 787 784 773 711 713 713 705 715 700 704 705 708 718 714 713 713 709 711 716 715 705 717 699 706 717 725 724 729 731 706 699 723 723 722 726 731 740
817 813 808 802 798 795 793 790 786 780 763 719 710 715 719 713 712 697 699 702 700 708 701 702 683 692 696 693 695 696 706 707 713 720 743 718 719 706 698 702 706 710 716 723 730
816 811 807 805 796 796 792 786 779 765 713 719 717 714 712 711 708 709 708 713 720 732 725 706 698 683 684 701 692 702 715 746 756 747 744 701 714 698 715 677 680 696 706 714 721
813 807 803 802 798 795 791 781 778 733 722 721 725 723 728 706 709 703 709 710 703 704 709 718 725 692 680 692 706 707 706 732 765 744 724 703 725 701 701 666 666 672 691 704 714
810 800 798 796 796 794 786 775 755 738 737 743 735 736 726 706 719 708 704 700 691 695 710 703 704 677 676 682 688 701 709 690 711 709 729 775 702 674 669 672 668 671 682 698 708
812 800 791 795 794 790 781 772 749 746 754 750 752 735 728 711 713 715 705 690 690 680 677 683 701 672 675 678 679 684 682 719 706 740 782 747 731 700 682 677 669 674 677 691 702
808 788 789 793 792 784 774 757 750 751 760 763 754 744 735 724 718 716 701 690 683 682 674 676 681 680 669 685 694 693 693 694 692 698 742 765 746 655 668 664 670 670 673 688 699
802 786 788 791 786 767 761 754 781 766 760 763 755 751 748 737 734 727 711 705 710 706 704 676 680 692 677 663 666 671 683 683 707 717 694 712 707 638 644 655 661 666 673 684 694
795 785 784 786 776 764 755 767 766 767 763 760 757 752 749 749 754 732 713 711 718 712 706 695 685 697 689 670 666 676 673 672 675 681 702 731 726 654 648 656 655 665 675 685 692
798 780 777 777 774 775 766 768 766 763 768 761 758 752 752 753 747 746 731 721 720 718 725 722 698 683 685 673 666 689 676 669 675 693 693 691 729 688 659 662 658 666 675 684 691
797 789 789 780 779 775 775 771 771 764 761 761 762 761 758 760 757 748 736 727 722 724 714 708 711 684 665 651 654 666 676 669 677 674 688 682 695 722 659 660 659 664 676 684 690
803 796 794 783 780 782 781 773 768 763 767 762 762 759 764 754 747 742 737 733 729 722 724 705 712 689 680 660 651 660 661 665 664 668 667 669 668 641 644 652 660 665 676 683 689
807 803 799 784 775 774 768 773 775 773 770 767 771 767 771 762 753 749 751 744 741 744 740 728 711 701 699 670 663 670 652 660 660 656 659 676 666 648 657 656 663 666 671 678 683